"TOA5","MOW","CPU:UNC_MeetingWaters","DataHourly"
"TIMESTAMP","SondeTempC","SpCond","DOSat","DOmg","pH","Turb","BattVolt_Min"
"TS","","","","","","",""
"","Smp","Smp","Smp","Smp","Smp","Smp","Min"
"2003-11-01 00:00:00",14.9200000763,0.368000000715,81.9000015259,8.26000022888,7.61000013351,8.10000038147,12.4300003052
"2003-11-01 01:00:00",14.6999998093,0.363000005484,83.0999984741,8.43000030518,7.61000013351,7.09999990463,12.4099998474
"2003-11-01 02:00:00",14.5,0.349000006914,84.1999969482,8.57999992371,7.61000013351,5.5,12.3999996185
"2003-11-01 03:00:00",14.3100004196,0.344000011683,84.5,8.64000034332,7.61999988556,4.09999990463,12.3900003433
"2003-11-01 04:00:00",14.0100002289,0.342999994755,84.8000030518,8.72999954224,7.61000013351,3.90000009537,12.3800001144
"2003-11-01 05:00:00",13.7600002289,0.340999990702,83.6999969482,8.67000007629,7.61000013351,3.5,12.3599996567
"2003-11-01 06:00:00",13.6899995804,0.338999986649,85.5999984741,8.86999988556,7.61000013351,3.59999990463,12.3500003815
"2003-11-01 07:00:00",13.3900003433,0.344999998808,84.4000015259,8.81000041962,7.59000015259,3.40000009537,12.3400001526
"2003-11-01 08:00:00",13.220000267,0.338999986649,86.1999969482,9.02999973297,7.59000015259,2.90000009537,12.3900003433
"2003-11-01 09:00:00",13.470000267,0.333999991417,89.5,9.31999969482,7.61000013351,4.0,12.7100000381
"2003-11-01 10:00:00",13.9399995804,0.331999987364,91.4000015259,9.42000007629,7.65000009537,3.79999995232,12.720000267
"2003-11-01 11:00:00",14.5500001907,0.33599999547,92.9000015259,9.44999980927,7.67999982834,3.29999995232,12.7899999619
"2003-11-01 12:00:00",14.9600000381,0.344000011683,92.4000015259,9.31999969482,7.71000003815,2.59999990463,13.25
"2003-11-01 13:00:00",15.4099998474,0.349000006914,94.9000015259,9.47999954224,7.73000001907,2.5,12.6999998093
"2003-11-01 14:00:00",16.1000003815,0.363000005484,90.8000030518,8.93999958038,7.75,1.89999997616,13.1400003433
"2003-11-01 15:00:00",16.3199996948,0.361000001431,89.1999969482,8.73999977112,7.73000001907,1.89999997616,12.6899995804
"2003-11-01 16:00:00",16.4500007629,0.358000010252,89.1999969482,8.71000003815,7.71000003815,1.79999995232,12.6099996567
"2003-11-01 17:00:00",16.5,0.354999989271,87.8000030518,8.56999969482,7.69000005722,1.60000002384,12.5699996948
"2003-11-01 18:00:00",16.4300003052,0.356000006199,86.5999984741,8.46000003815,7.67999982834,1.60000002384,12.5399999619
"2003-11-01 19:00:00",16.3400001526,0.352999985218,85.6999969482,8.39000034332,7.65999984741,1.79999995232,12.5200004578
"2003-11-01 20:00:00",16.2299995422,0.344000011683,84.8000030518,8.32999992371,7.65000009537,1.70000004768,12.5
"2003-11-01 21:00:00",16.0200004578,0.337000012398,83.6999969482,8.25,7.63999986649,2.09999990463,12.4799995422
"2003-11-01 22:00:00",15.8999996185,0.333000004292,84.4000015259,8.34000015259,7.63000011444,3.0,12.470000267
"2003-11-01 23:00:00",15.7700004578,0.331999987364,84.5,8.36999988556,7.61999988556,7.30000019073,12.4399995804
"2003-11-02 00:00:00",15.5500001907,0.333999991417,85.0999984741,8.47000026703,7.59999990463,11.8000001907,12.4399995804
"2003-11-02 01:00:00",15.4300003052,0.337000012398,83.0,8.28999996185,7.59999990463,14.3000001907,12.4200000763
"2003-11-02 02:00:00",15.220000267,0.338999986649,84.1999969482,8.43999958038,7.59999990463,13.8999996185,12.3999996185
"2003-11-02 03:00:00",15.0,0.340000003576,84.1999969482,8.48999977112,7.59999990463,11.3999996185,12.3900003433
"2003-11-02 04:00:00",14.779999733,0.340000003576,85.5999984741,8.65999984741,7.61000013351,8.0,12.3800001144
"2003-11-02 05:00:00",14.5600004196,0.340000003576,86.0,8.75,7.61999988556,5.80000019073,12.3599996567
"2003-11-02 06:00:00",14.3800001144,0.338999986649,86.0999984741,8.78999996185,7.63000011444,4.19999980927,12.3599996567
"2003-11-02 07:00:00",14.2700004578,0.337000012398,87.5,8.96000003815,7.63999986649,3.29999995232,12.3500003815
"2003-11-02 08:00:00",14.0900001526,0.345999985933,85.6999969482,8.80000019073,7.61999988556,2.79999995232,12.3699998856
"2003-11-02 09:00:00",14.0699996948,0.340000003576,86.5,8.89000034332,7.61000013351,2.70000004768,12.6599998474
"2003-11-02 10:00:00",14.470000267,0.337000012398,90.0999984741,9.18000030518,7.61000013351,2.20000004768,12.7100000381
"2003-11-02 11:00:00",14.8500003815,0.333999991417,93.8000030518,9.47999954224,7.67000007629,2.0,12.7100000381
"2003-11-02 12:00:00",15.5399999619,0.33599999547,102.0,10.1599998474,7.69999980927,1.79999995232,13.2299995422
"2003-11-02 13:00:00",16.0599994659,0.340999990702,95.0999984741,9.35999965668,7.71999979019,1.89999997616,12.7299995422
"2003-11-02 14:00:00",16.4699993134,0.356000006199,96.6999969482,9.43999958038,7.73999977112,1.60000002384,13.1599998474
"2003-11-02 15:00:00",16.6499996185,0.375999987125,91.3000030518,8.88000011444,7.73000001907,1.60000002384,12.6999998093
"2003-11-02 16:00:00",16.7199993134,0.389999985695,89.5999984741,8.69999980927,7.73000001907,2.0,12.6099996567
"2003-11-02 17:00:00",16.7199993134,0.388999998569,87.5,8.5,7.71000003815,1.5,12.5699996948
"2003-11-02 18:00:00",16.6299991608,0.372999995947,86.5999984741,8.42000007629,7.69999980927,1.89999997616,12.5500001907
"2003-11-02 19:00:00",16.4300003052,0.354999989271,85.5999984741,8.35999965668,7.69999980927,2.09999990463,12.5200004578
"2003-11-02 20:00:00",16.3600006104,0.344999998808,85.8000030518,8.39000034332,7.69000005722,1.89999997616,12.5
"2003-11-02 21:00:00",16.1100006104,0.340999990702,84.0999984741,8.27000045776,7.67999982834,1.39999997616,12.4899997711
"2003-11-02 22:00:00",15.9899997711,0.338999986649,84.5,8.34000015259,7.67000007629,1.39999997616,12.4600000381
"2003-11-02 23:00:00",15.7600002289,0.338999986649,85.0,8.42000007629,7.65999984741,1.29999995232,12.4399995804
"2003-11-03 00:00:00",15.5600004196,0.33599999547,84.6999969482,8.43000030518,7.65999984741,1.5,12.4399995804
"2003-11-03 01:00:00",15.3800001144,0.33599999547,84.6999969482,8.47000026703,7.65999984741,1.70000004768,12.4200000763
"2003-11-03 02:00:00",15.1599998474,0.337000012398,83.1999969482,8.35999965668,7.65999984741,1.70000004768,12.3999996185
"2003-11-03 03:00:00",14.9799995422,0.33599999547,84.6999969482,8.52999973297,7.65000009537,1.79999995232,12.3800001144
"2003-11-03 04:00:00",14.6999998093,0.33599999547,85.8000030518,8.69999980927,7.65999984741,1.79999995232,12.3800001144
"2003-11-03 05:00:00",14.5699996948,0.333000004292,86.4000015259,8.78999996185,7.65999984741,1.79999995232,12.3400001526
"2003-11-03 06:00:00",14.3199996948,0.338999986649,82.1999969482,8.39999961853,7.63999986649,1.89999997616,12.3400001526
"2003-11-03 07:00:00",14.1599998474,0.337000012398,87.5999984741,8.97999954224,7.63999986649,5.80000019073,12.3400001526
"2003-11-03 08:00:00",13.8900003433,0.347000002861,85.5,8.81999969482,7.63000011444,4.19999980927,12.3400001526
"2003-11-03 09:00:00",14.0,0.351999998093,87.3000030518,8.98999977112,7.61000013351,4.40000009537,12.7100000381
"2003-11-03 10:00:00",14.3000001907,0.356000006199,90.6999969482,9.27999973297,7.61999988556,4.0,12.7299995422
"2003-11-03 11:00:00",14.8900003433,0.398000001907,92.3000030518,9.31999969482,7.67999982834,2.90000009537,12.7299995422
"2003-11-03 12:00:00",15.5799999237,0.407000005245,92.4000015259,9.18999958038,7.75,2.5,13.2299995422
"2003-11-03 13:00:00",15.970000267,0.404000014067,96.0999984741,9.47999954224,7.76999998093,2.29999995232,12.7899999619
"2003-11-03 14:00:00",16.5300006866,0.384999990463,93.4000015259,9.10000038147,7.76999998093,1.79999995232,13.1700000763
"2003-11-03 15:00:00",16.75,0.372999995947,91.6999969482,8.90999984741,7.76999998093,6.0,12.6899995804
"2003-11-03 16:00:00",16.8299999237,0.360000014305,89.6999969482,8.68999958038,7.76000022888,1.5,12.6199998856
"2003-11-03 17:00:00",16.8600006104,0.345999985933,87.5999984741,8.48999977112,7.73000001907,1.39999997616,12.5799999237
"2003-11-03 18:00:00",16.7999992371,0.342000007629,86.5,8.39000034332,7.69999980927,1.29999995232,12.5500001907
"2003-11-03 19:00:00",16.7000007629,0.337000012398,84.6999969482,8.22999954224,7.67000007629,1.60000002384,12.529999733
"2003-11-03 20:00:00",16.5599994659,0.338999986649,82.5999984741,8.05000019073,7.65999984741,1.5,12.5100002289
"2003-11-03 21:00:00",16.4599990845,0.342999994755,82.9000015259,8.10000038147,7.65999984741,1.70000004768,12.5
"2003-11-03 22:00:00",16.4099998474,0.342999994755,85.0,8.31000041962,7.65999984741,1.89999997616,12.4799995422
"2003-11-03 23:00:00",16.3199996948,0.340000003576,85.5,8.38000011444,7.65999984741,2.20000004768,12.4600000381
"2003-11-04 00:00:00",16.1399993896,0.33599999547,84.1999969482,8.27999973297,7.65999984741,2.09999990463,12.4399995804
"2003-11-04 01:00:00",15.970000267,0.331999987364,84.6999969482,8.35999965668,7.65000009537,2.20000004768,12.4300003052
"2003-11-04 02:00:00",15.8199996948,0.331000000238,83.8000030518,8.28999996185,7.65000009537,2.20000004768,12.4200000763
"2003-11-04 03:00:00",15.6499996185,0.331999987364,82.5,8.19999980927,7.63000011444,2.90000009537,12.3999996185
"2003-11-04 04:00:00",15.5500001907,0.333999991417,82.3000030518,8.18999958038,7.63000011444,2.70000004768,12.3900003433
"2003-11-04 05:00:00",15.5399999619,0.335000008345,80.4000015259,8.0,7.61999988556,2.29999995232,12.3800001144
"2003-11-04 06:00:00",15.5399999619,0.33599999547,79.9000015259,7.96000003815,7.61000013351,2.20000004768,12.3699998856
"2003-11-04 07:00:00",15.529999733,0.340000003576,82.4000015259,8.21000003815,7.59000015259,2.0,12.3699998856
"2003-11-04 08:00:00",15.6099996567,0.344999998808,83.0999984741,8.27000045776,7.59000015259,1.70000004768,12.3900003433
"2003-11-04 09:00:00",15.8599996567,0.347999989986,84.3000030518,8.34000015259,7.61000013351,1.60000002384,12.6099996567
"2003-11-04 10:00:00",16.1700000763,0.351999998093,90.3000030518,8.86999988556,7.61999988556,1.39999997616,12.8699998856
"2003-11-04 11:00:00",16.6000003815,0.351000010967,93.1999969482,9.07999992371,7.65999984741,1.29999995232,12.9499998093
"2003-11-04 12:00:00",17.1599998474,0.344000011683,95.3000030518,9.18000030518,7.69999980927,1.29999995232,13.1899995804
"2003-11-04 13:00:00",17.5400009155,0.340999990702,93.0999984741,8.89000034332,7.73000001907,2.20000004768,13.1599998474
"2003-11-04 14:00:00",17.9500007629,0.337999999523,91.5999984741,8.67000007629,7.73999977112,2.20000004768,12.779999733
"2003-11-04 15:00:00",18.1599998474,0.333999991417,89.5999984741,8.44999980927,7.73999977112,2.90000009537,12.720000267
"2003-11-04 16:00:00",18.2999992371,0.330000013113,88.3000030518,8.30000019073,7.71000003815,3.40000009537,12.6300001144
"2003-11-04 17:00:00",18.2900009155,0.328999996185,86.5,8.14000034332,7.69000005722,3.40000009537,12.5900001526
"2003-11-04 18:00:00",18.2000007629,0.333999991417,83.5999984741,7.86999988556,7.65999984741,2.90000009537,12.5699996948
"2003-11-04 19:00:00",18.1299991608,0.342999994755,82.4000015259,7.76999998093,7.63000011444,2.5,12.5500001907
"2003-11-04 20:00:00",18.0699996948,0.363999992609,81.4000015259,7.67999982834,7.61000013351,2.40000009537,12.529999733
"2003-11-04 21:00:00",18.0300006866,0.374000012875,82.0,7.75,7.59999990463,2.20000004768,12.5100002289
"2003-11-04 22:00:00",17.9899997711,0.372999995947,81.9000015259,7.75,7.59999990463,2.0,12.5
"2003-11-04 23:00:00",17.9099998474,0.368999987841,82.6999969482,7.82999992371,7.59999990463,1.79999995232,12.4899997711
"2003-11-05 00:00:00",17.8500003815,0.363000005484,82.0999984741,7.78999996185,7.59999990463,1.39999997616,12.470000267
"2003-11-05 01:00:00",17.7700004578,0.351000010967,81.5999984741,7.75,7.59000015259,1.29999995232,12.4600000381
"2003-11-05 02:00:00",17.6299991608,0.340999990702,82.3000030518,7.84000015259,7.57999992371,1.0,12.4399995804
"2003-11-05 03:00:00",17.5499992371,0.333999991417,80.5999984741,7.69000005722,7.57000017166,1.20000004768,12.4300003052
"2003-11-05 04:00:00",17.5499992371,0.331999987364,79.9000015259,7.63000011444,7.55000019073,1.20000004768,12.4200000763
"2003-11-05 05:00:00",17.5900001526,0.333000004292,81.6999969482,7.78999996185,7.55000019073,1.0,12.4099998474
"2003-11-05 06:00:00",17.6100006104,0.344000011683,82.4000015259,7.86000013351,7.55999994278,1.10000002384,12.4099998474
"2003-11-05 07:00:00",17.6399993896,0.358000010252,82.0,7.80999994278,7.55999994278,1.20000004768,12.3999996185
"2003-11-05 08:00:00",17.7000007629,0.370000004768,81.8000030518,7.78000020981,7.57999992371,0.899999976158,12.4099998474
"2003-11-05 09:00:00",17.7800006866,0.372000008821,84.1999969482,8.0,7.57999992371,0.800000011921,12.4099998474
"2003-11-05 10:00:00",17.9599990845,0.370000004768,86.5,8.18999958038,7.59000015259,0.899999976158,12.5799999237
"2003-11-05 11:00:00",18.2399997711,0.358999997377,89.9000015259,8.47000026703,7.61999988556,0.699999988079,12.6599998474
"2003-11-05 12:00:00",18.6499996185,0.344000011683,90.5,8.44999980927,7.65000009537,0.699999988079,12.7399997711
"2003-11-05 13:00:00",19.0400009155,0.335000008345,95.6999969482,8.85999965668,7.67000007629,0.800000011921,12.9899997711
"2003-11-05 14:00:00",19.3600006104,0.333000004292,99.0,9.10999965668,7.71000003815,1.0,13.0600004196
"2003-11-05 15:00:00",19.5400009155,0.333000004292,90.4000015259,8.28999996185,7.71000003815,1.0,12.6599998474
"2003-11-05 16:00:00",19.6599998474,0.337999999523,87.3000030518,7.98999977112,7.69999980927,0.800000011921,12.6099996567
"2003-11-05 17:00:00",19.9400005341,0.33599999547,83.4000015259,7.57999992371,7.61999988556,20.2999992371,12.5699996948
"2003-11-05 18:00:00",20.0900001526,0.444999992847,78.4000015259,7.11000013351,7.59000015259,13.0,12.5500001907
"2003-11-05 19:00:00",19.9799995422,0.503000020981,76.0,6.90000009537,7.65999984741,17.5,12.529999733
"2003-11-05 20:00:00",19.8400001526,0.469000011683,72.0999984741,6.57000017166,7.65000009537,24.6000003815,12.5100002289
"2003-11-05 21:00:00",19.7800006866,0.449000000954,68.9000015259,6.28000020981,7.61000013351,26.2999992371,12.4899997711
"2003-11-05 22:00:00",19.6800003052,0.34999999404,65.6999969482,6.01000022888,7.51000022888,35.5999984741,12.4799995422
"2003-11-05 23:00:00",19.6499996185,0.29699999094,64.0,5.86000013351,7.40999984741,39.9000015259,12.470000267
"2003-11-06 00:00:00",19.6299991608,0.291000008583,65.8000030518,6.01999998093,7.34000015259,40.2000007629,12.4499998093
"2003-11-06 01:00:00",19.5499992371,0.354999989271,67.0999984741,6.15000009537,7.36000013351,34.0999984741,12.4300003052
"2003-11-06 02:00:00",19.4699993134,0.363000005484,67.0,6.15000009537,7.38999986649,26.5,12.4099998474
"2003-11-06 03:00:00",19.3799991608,0.356000006199,67.5999984741,6.21999979019,7.38999986649,20.2999992371,12.3999996185
"2003-11-06 04:00:00",19.2999992371,0.349000006914,66.9000015259,6.17000007629,7.38000011444,20.3999996185,12.3900003433
"2003-11-06 05:00:00",19.2700004578,0.347999989986,66.5999984741,6.13999986649,7.38000011444,14.8000001907,12.3900003433
"2003-11-06 06:00:00",19.25,0.345999985933,67.9000015259,6.26000022888,7.36999988556,11.1999998093,12.3900003433
"2003-11-06 07:00:00",19.2299995422,0.32800000906,69.8000030518,6.44000005722,7.36000013351,9.39999961853,12.3900003433
"2003-11-06 08:00:00",19.2399997711,0.316000014544,70.0999984741,6.46000003815,7.36000013351,9.39999961853,12.3900003433
"2003-11-06 09:00:00",19.2999992371,0.31099998951,71.0,6.53999996185,7.34999990463,9.30000019073,12.3900003433
"2003-11-06 10:00:00",19.3899993896,0.307999998331,73.0999984741,6.73000001907,7.34999990463,8.80000019073,12.4399995804
"2003-11-06 11:00:00",19.5699996948,0.307999998331,74.1999969482,6.80000019073,7.36999988556,7.30000019073,12.5900001526
"2003-11-06 12:00:00",19.9799995422,0.310000002384,81.0,7.36999988556,7.40000009537,5.59999990463,12.779999733
"2003-11-06 13:00:00",20.1800003052,0.351999998093,80.8000030518,7.30999994278,7.46000003815,3.20000004768,12.7700004578
"2003-11-06 14:00:00",20.4099998474,0.361999988556,80.6999969482,7.26999998093,7.53000020981,2.5,12.6800003052
"2003-11-06 15:00:00",20.6499996185,0.363000005484,83.5,7.48999977112,7.51999998093,2.70000004768,12.6800003052
"2003-11-06 16:00:00",20.7000007629,0.345999985933,80.1999969482,7.19000005722,7.53999996185,2.09999990463,12.6000003815
"2003-11-06 17:00:00",20.6299991608,0.335000008345,78.4000015259,7.03999996185,7.53999996185,2.20000004768,12.5500001907
"2003-11-06 18:00:00",20.5499992371,0.330000013113,77.0999984741,6.92999982834,7.51000022888,1.60000002384,12.5200004578
"2003-11-06 19:00:00",20.4400005341,0.340999990702,71.5999984741,6.44999980927,7.51000022888,1.20000004768,12.5
"2003-11-06 20:00:00",20.2999992371,0.352999985218,73.1999969482,6.61000013351,7.48000001907,8.5,12.4799995422
"2003-11-06 21:00:00",20.4300003052,0.300999999046,78.1999969482,7.05000019073,7.5,40.0999984741,12.4600000381
"2003-11-06 22:00:00",20.5499992371,0.232999995351,75.6999969482,6.80999994278,7.38999986649,37.2999992371,12.4499998093
"2003-11-06 23:00:00",20.3400001526,0.239999994636,72.4000015259,6.53999996185,7.32999992371,25.3999996185,12.4200000763
"2003-11-07 00:00:00",20.1200008392,0.238999992609,70.0999984741,6.34999990463,7.30000019073,30.7000007629,12.3999996185
"2003-11-07 01:00:00",19.9599990845,0.237000003457,68.3000030518,6.21000003815,7.28000020981,37.7000007629,12.3900003433
"2003-11-07 02:00:00",19.8299999237,0.234999999404,67.0,6.11000013351,7.26999998093,41.4000015259,12.3699998856
"2003-11-07 03:00:00",19.7099990845,0.236000001431,65.8000030518,6.01000022888,7.25,41.5999984741,12.3699998856
"2003-11-07 04:00:00",19.5900001526,0.238999992609,64.3000030518,5.88999986649,7.26000022888,40.0999984741,12.3599996567
"2003-11-07 05:00:00",19.4400005341,0.239999994636,67.0999984741,6.17000007629,7.26000022888,34.7000007629,12.3500003815
"2003-11-07 06:00:00",19.2600002289,0.238999992609,67.6999969482,6.23999977112,7.26000022888,29.7000007629,12.3500003815
"2003-11-07 07:00:00",19.1000003815,0.243000000715,68.5999984741,6.34000015259,7.26999998093,25.0,12.3400001526
"2003-11-07 08:00:00",19.0100002289,0.256000012159,70.0,6.48999977112,7.28999996185,19.2000007629,12.3400001526
"2003-11-07 09:00:00",18.9699993134,0.272000014782,73.3000030518,6.78999996185,7.32999992371,13.8000001907,12.8299999237
"2003-11-07 10:00:00",19.1100006104,0.277999997139,69.6999969482,6.44999980927,7.36000013351,11.6000003815,12.7399997711
"2003-11-07 11:00:00",19.3199996948,0.293000012636,78.5,7.23000001907,7.40000009537,7.19999980927,12.8299999237
"2003-11-07 12:00:00",19.5900001526,0.298999994993,78.6999969482,7.21000003815,7.46000003815,6.90000009537,12.720000267
"2003-11-07 13:00:00",19.8099994659,0.305999994278,81.6999969482,7.44999980927,7.5,4.40000009537,12.7600002289
"2003-11-07 14:00:00",19.9200000763,0.31099998951,81.9000015259,7.44999980927,7.51999998093,3.5,13.1800003052
"2003-11-07 15:00:00",20.0200004578,0.317000001669,82.0,7.44999980927,7.53999996185,2.40000009537,12.6800003052
"2003-11-07 16:00:00",19.9699993134,0.33599999547,79.0,7.17999982834,7.55000019073,1.89999997616,12.5900001526
"2003-11-07 17:00:00",19.8600006104,0.370000004768,77.0999984741,7.01999998093,7.55999994278,1.29999995232,12.5500001907
"2003-11-07 18:00:00",19.7299995422,0.389999985695,75.0,6.84999990463,7.57000017166,1.20000004768,12.529999733
"2003-11-07 19:00:00",19.5799999237,0.409999996424,75.9000015259,6.94999980927,7.57000017166,1.0,12.5200004578
"2003-11-07 20:00:00",19.4200000763,0.416999995708,75.6999969482,6.94999980927,7.57999992371,1.29999995232,12.5100002289
"2003-11-07 21:00:00",19.1900005341,0.418000012636,76.5,7.05999994278,7.59000015259,1.0,12.5
"2003-11-07 22:00:00",18.9799995422,0.409999996424,77.1999969482,7.15999984741,7.59999990463,4.40000009537,12.4899997711
"2003-11-07 23:00:00",18.7900009155,0.40000000596,77.0,7.17000007629,7.61000013351,1.39999997616,12.4799995422
"2003-11-08 00:00:00",18.4500007629,0.391000002623,75.4000015259,7.05999994278,7.61000013351,0.800000011921,12.470000267
"2003-11-08 01:00:00",18.2600002289,0.381000012159,77.0999984741,7.25,7.61999988556,0.699999988079,12.4499998093
"2003-11-08 02:00:00",18.0300006866,0.370000004768,77.5999984741,7.34000015259,7.61000013351,0.600000023842,12.4399995804
"2003-11-08 03:00:00",17.8099994659,0.368000000715,77.6999969482,7.38000011444,7.59000015259,0.800000011921,12.4300003052
"2003-11-08 04:00:00",17.4300003052,0.356999993324,76.0,7.28000020981,7.59000015259,0.899999976158,12.4099998474
"2003-11-08 05:00:00",17.1200008392,0.354000002146,78.5,7.55999994278,7.61000013351,1.60000002384,12.3900003433
"2003-11-08 06:00:00",16.9099998474,0.298000007868,78.5999984741,7.59999990463,7.57000017166,12.8999996185,12.3699998856
"2003-11-08 07:00:00",17.1499996185,0.180999994278,85.4000015259,8.22000026703,7.57999992371,36.9000015259,12.3599996567
"2003-11-08 08:00:00",16.9699993134,0.158999994397,82.9000015259,8.02000045776,7.46000003815,58.2000007629,12.3400001526
"2003-11-08 09:00:00",16.7700004578,0.138999998569,82.8000030518,8.03999996185,7.40999984741,61.7000007629,12.3400001526
"2003-11-08 10:00:00",16.6100006104,0.142000004649,83.0,8.09000015259,7.36999988556,34.4000015259,12.3299999237
"2003-11-08 11:00:00",16.5,0.141000002623,82.0999984741,8.02000045776,7.32000017166,25.2999992371,12.4499998093
"2003-11-08 12:00:00",16.4300003052,0.15000000596,82.5999984741,8.07999992371,7.30000019073,22.2000007629,12.6999998093
"2003-11-08 13:00:00",16.4799995422,0.159999996424,83.8000030518,8.18999958038,7.30000019073,19.5,13.1999998093
"2003-11-08 14:00:00",16.5699996948,0.168999999762,84.0,8.18000030518,7.32000017166,15.8000001907,13.3900003433
"2003-11-08 15:00:00",16.5200004578,0.17499999702,81.5,7.94999980927,7.30999994278,14.8000001907,12.8800001144
"2003-11-08 16:00:00",16.4400005341,0.181999996305,80.4000015259,7.84999990463,7.28999996185,13.3999996185,12.6499996185
"2003-11-08 17:00:00",16.2600002289,0.189999997616,77.4000015259,7.59000015259,7.28999996185,12.5,12.5600004196
"2003-11-08 18:00:00",15.8199996948,0.202000007033,77.0999984741,7.63999986649,7.30000019073,11.8000001907,12.5399999619
"2003-11-08 19:00:00",15.5500001907,0.21099999547,77.4000015259,7.71000003815,7.30999994278,10.3999996185,12.5100002289
"2003-11-08 20:00:00",15.0799999237,0.221000000834,77.4000015259,7.78000020981,7.34000015259,9.60000038147,12.4799995422
"2003-11-08 21:00:00",14.529999733,0.234999999404,78.1999969482,7.96000003815,7.34999990463,9.0,12.4600000381
"2003-11-08 22:00:00",14.3500003815,0.247999995947,79.4000015259,8.11999988556,7.38999986649,10.1999998093,12.4399995804
"2003-11-08 23:00:00",14.0799999237,0.263000011444,81.3000030518,8.35999965668,7.40999984741,11.3999996185,12.4300003052
"2003-11-09 00:00:00",13.8400001526,0.273999989033,81.8000030518,8.46000003815,7.44999980927,12.3000001907,12.4099998474
"2003-11-09 01:00:00",13.4600000381,0.287999987602,82.8000030518,8.63000011444,7.48000001907,15.8999996185,12.3900003433
"2003-11-09 02:00:00",13.1000003815,0.294999986887,81.8000030518,8.59000015259,7.5,7.59999990463,12.3699998856
"2003-11-09 03:00:00",12.8199996948,0.301999986172,80.5999984741,8.52999973297,7.51999998093,6.40000009537,12.3400001526
"2003-11-09 04:00:00",12.4099998474,0.314999997616,83.0,8.85000038147,7.53000020981,5.30000019073,12.3100004196
"2003-11-09 05:00:00",12.0799999237,0.330000013113,84.4000015259,9.06999969482,7.55000019073,4.5,12.279999733
"2003-11-09 06:00:00",11.8599996567,0.338999986649,83.4000015259,9.0,7.57000017166,4.0,12.25
"2003-11-09 07:00:00",11.6099996567,0.351000010967,85.1999969482,9.25,7.59000015259,3.20000004768,12.2399997711
"2003-11-09 08:00:00",11.6899995804,0.349000006914,87.9000015259,9.52999973297,7.61000013351,4.59999990463,12.25
"2003-11-09 09:00:00",11.6700000763,0.34999999404,90.3000030518,9.78999996185,7.63999986649,3.90000009537,12.9200000763
"2003-11-09 10:00:00",11.6599998474,0.338999986649,88.8000030518,9.63000011444,7.65999984741,3.0,12.7899999619